Location: Waco, TX
(31.5480°N, 97.1670°W)
Time: 00:32:08
(UTC-06:00)

ISS - Pass Details

Date: 12 December 2017
Orbit: 403 x 407 km, 51.6° (Epoch: 12 December)

Event Time Altitude Azimuth Distance (km) Brightness Sun altitude
Rises 11:33:26 0° 206° (SSW) 2,308 0.6 34.1°
Reaches altitude 10° 11:35:37 10° 197° (SSW) 1,453 0.0 34.2°
Maximum altitude 11:38:36 34° 130° (SE) 693 -1.4 34.3°
Drops below altitude 10° 11:41:36 10° 64° (ENE) 1,462 -1.0 34.5°
Sets 11:43:48 0° 54° (NE) 2,325 -0.2 34.5°
